Theta_e
316 316 317 317 318 319 316 311 310 309 309 309 308 308 308 307 308 308 311 309 310 310 313 311 311 312 313 315 313 314 319 321 319 319 318 316 318 314 314 317 319 322 320 322 332
315 316 317 317 318 318 317 312 309 309 308 309 308 307 307 308 309 311 308 309 309 310 311 311 313 313 316 315 315 319 319 319 317 318 317 317 318 317 317 318 317 319 320 329 335
315 316 316 317 317 318 315 312 309 309 308 308 308 307 308 308 311 310 310 308 312 311 311 310 311 313 315 315 315 316 318 315 314 313 315 316 315 315 318 318 319 319 320 331 334
315 315 316 316 317 318 318 310 309 308 308 307 307 307 308 311 309 312 313 309 313 310 310 310 312 313 315 315 312 316 312 313 312 313 313 315 314 315 316 318 314 317 319 331 333
315 314 315 316 316 317 318 312 309 308 307 307 307 308 310 311 309 311 313 312 312 310 310 311 312 312 314 312 311 313 313 310 311 310 312 312 314 314 314 315 311 312 318 328 332
315 314 315 316 315 316 317 314 309 308 307 307 307 308 312 308 308 312 312 312 310 310 310 310 312 311 311 312 313 311 311 311 311 310 310 311 310 310 311 310 310 311 317 321 328
315 314 315 315 314 315 316 314 310 308 307 307 308 309 311 309 311 311 312 311 310 310 311 309 310 311 311 312 310 310 312 311 312 311 312 311 313 312 312 309 310 310 313 317 323
315 314 314 314 314 315 315 314 310 308 308 308 309 310 309 308 311 310 310 310 310 310 310 310 309 311 312 310 311 311 312 313 310 311 311 311 314 310 309 310 311 311 311 311 314
316 314 315 314 314 315 315 312 309 308 308 310 311 309 308 309 310 310 310 310 310 310 310 310 311 312 311 314 314 312 313 312 310 310 312 311 313 310 311 312 313 313 311 311 310
316 315 315 314 314 314 314 311 310 310 311 311 311 310 308 310 312 310 309 310 311 311 312 313 313 313 312 313 311 314 311 310 312 311 311 312 313 313 312 311 313 314 314 313 313
316 315 315 314 314 314 312 313 311 312 314 310 310 307 306 310 310 309 309 309 310 313 312 311 312 312 312 312 309 312 310 310 310 310 313 314 313 314 314 312 314 314 314 314 314
316 315 315 314 315 314 313 310 308 309 310 311 310 309 309 311 312 310 309 311 312 312 311 312 312 312 312 308 309 310 311 310 309 310 312 312 313 313 313 312 314 314 314 313 312
316 315 315 314 315 313 312 309 307 307 308 308 310 310 312 311 312 311 310 309 311 311 312 311 310 309 310 308 309 310 310 310 310 309 308 310 312 311 309 308 309 309 308 308 308
316 315 314 314 314 313 312 309 312 310 309 309 309 309 312 311 311 309 308 310 308 310 310 310 307 309 310 310 311 311 309 309 310 311 310 309 310 312 310 310 309 309 309 310 311
316 315 315 314 313 312 310 310 315 308 309 310 308 308 311 312 310 310 307 309 309 309 310 310 308 309 310 310 310 311 308 309 310 312 312 311 311 311 307 311 310 309 309 309 308
316 315 315 314 312 311 309 309 312 314 313 310 310 311 312 310 311 310 311 307 307 309 307 309 307 308 309 306 308 308 310 311 310 310 312 311 311 310 310 310 308 307 311 310 309
315 315 315 312 312 310 309 313 313 315 309 312 311 312 311 311 312 311 312 311 310 310 310 310 310 309 308 310 308 310 312 312 313 313 311 308 310 311 309 307 308 310 312 309 308
314 316 314 312 311 309 310 312 314 311 310 313 312 312 311 311 311 311 312 311 310 308 310 309 309 311 309 311 311 311 311 314 317 314 312 308 312 312 308 307 307 310 309 309 309
312 315 312 312 309 310 312 313 313 311 311 314 311 311 311 311 311 312 312 312 311 308 308 309 309 309 309 309 311 311 311 310 309 304 313 311 311 310 308 311 310 310 310 309 308
306 314 313 311 308 310 310 313 312 310 313 312 313 311 311 312 311 312 312 311 311 308 307 309 310 310 309 310 309 310 309 310 310 318 315 309 310 311 312 313 311 310 310 308 306
302 309 305 311 309 312 312 313 311 310 313 313 314 312 311 311 311 312 312 310 310 309 308 308 311 312 310 312 311 309 310 310 310 313 317 313 310 309 312 314 313 311 309 308 307
301 304 304 309 310 310 311 312 310 312 315 315 313 313 312 312 312 313 311 310 309 309 309 309 312 315 312 309 308 310 311 311 312 312 310 311 311 308 308 313 312 311 308 307 306
301 298 302 306 309 308 310 311 311 314 316 316 316 314 311 312 313 312 312 310 308 310 311 309 315 318 313 311 310 311 310 310 311 311 314 316 311 309 311 311 310 309 308 306 305
302 306 299 297 298 309 311 312 312 312 315 314 316 315 313 313 313 313 312 313 310 310 311 310 312 312 313 311 313 313 311 310 311 314 312 312 311 312 312 312 309 308 308 306 304
299 303 300 305 304 306 310 311 312 313 313 314 315 317 316 316 313 314 313 314 314 312 311 312 315 312 311 310 313 314 314 312 311 312 312 312 311 311 314 314 312 308 307 304 302
300 300 299 302 303 305 308 308 311 312 313 315 316 315 315 317 315 316 314 315 316 314 312 311 318 313 313 312 312 314 313 313 312 312 311 311 311 310 313 313 311 308 305 304 302
296 297 301 302 304 306 307 307 307 309 308 311 314 315 316 316 312 312 313 314 315 315 314 313 314 315 317 314 315 316 313 313 312 312 312 312 312 309 311 310 311 308 305 304 303
Wind_Speed
23 21 19 17 16 13 15 17 18 17 16 14 13 11 10 9 6 6 6 5 4 8 7 7 6 6 4 3 1 1 2 5 6 7 6 7 7 4 2 4 2 4 1 4 15
24 22 21 19 17 15 15 17 17 15 15 15 13 11 10 8 7 9 7 7 8 8 9 11 7 7 4 2 1 2 2 6 4 5 6 9 6 9 7 7 4 4 3 6 14
26 24 23 21 19 17 18 17 16 15 15 13 12 11 10 8 3 5 7 14 8 12 8 10 7 2 4 3 2 3 3 4 4 2 4 8 4 4 5 6 8 10 10 11 15
27 25 24 21 19 17 15 19 17 15 13 12 11 10 8 7 6 3 4 13 10 11 10 8 6 4 4 6 2 4 2 2 2 3 4 9 5 4 6 1 3 6 9 15 17
27 26 24 21 19 17 16 17 17 15 13 11 10 9 6 4 3 3 8 12 11 10 6 4 6 4 5 4 4 3 4 3 3 4 5 7 3 1 6 5 3 2 8 14 16
27 27 24 22 20 18 16 17 17 16 13 12 10 10 2 7 3 5 10 13 12 12 8 8 7 4 5 3 3 4 5 6 3 2 2 2 3 2 2 1 5 7 8 10 15
29 27 26 24 21 18 16 15 17 15 13 11 10 9 3 4 2 8 10 10 13 11 6 4 6 2 6 6 2 7 4 4 3 2 2 1 5 6 2 2 3 6 8 7 12
29 28 27 23 21 20 17 16 15 14 12 11 9 6 4 3 5 8 8 9 10 10 6 6 6 7 2 6 3 4 3 5 2 3 1 4 11 3 2 3 10 8 7 9 10
29 29 27 24 22 21 18 16 14 13 11 10 6 4 4 4 6 10 11 7 8 9 7 8 3 3 4 7 4 0 5 4 2 1 2 4 5 3 3 1 3 6 8 8 8
28 28 28 26 24 22 20 18 15 12 10 7 2 4 4 5 6 11 10 15 4 10 8 3 3 4 4 7 9 6 4 2 4 3 1 3 13 6 6 7 7 8 7 8 8
29 29 29 26 28 26 27 18 10 4 4 3 7 1 3 4 8 5 8 6 4 4 8 3 8 12 11 8 1 4 4 5 2 2 3 8 13 12 9 9 11 12 12 12 11
33 31 30 29 30 29 25 6 10 9 7 7 1 1 2 5 4 4 12 8 7 10 8 5 13 9 8 8 6 5 5 3 2 1 3 1 12 13 9 9 12 11 10 9 10
33 32 31 31 30 28 20 7 13 13 4 4 3 4 3 6 4 15 14 7 5 8 15 12 4 11 7 7 8 3 7 4 2 3 2 5 8 6 2 6 7 5 4 3 3
39 36 33 32 25 24 17 14 9 6 3 6 7 6 5 5 3 1 8 5 3 11 9 5 2 11 8 6 8 8 8 5 6 2 4 3 6 4 3 9 4 3 3 3 4
44 41 39 40 20 17 14 20 5 2 6 9 7 2 4 8 11 4 2 2 11 8 7 6 10 13 8 7 10 3 5 4 3 3 1 4 5 3 1 7 6 4 2 1 3
41 42 42 31 19 25 15 18 2 3 10 6 6 10 11 7 2 5 5 4 4 6 3 3 2 3 4 4 3 15 8 6 4 1 5 8 6 5 6 5 5 2 2 2 5
30 42 45 31 14 32 23 8 6 8 5 9 8 10 16 9 6 8 16 13 10 9 10 3 3 2 3 8 5 3 13 3 3 4 6 1 4 9 4 4 3 3 5 4 5
36 43 39 28 30 39 27 9 7 13 11 3 8 15 15 13 9 8 15 15 15 5 8 12 7 10 5 4 10 11 9 6 7 5 2 2 8 4 1 1 2 6 5 7 7
12 46 30 32 40 43 13 14 13 8 14 11 14 19 12 12 7 10 15 16 19 16 13 10 11 0 1 4 12 7 8 3 7 1 1 5 5 9 6 5 8 8 7 8 8
4 16 23 37 50 27 11 16 13 5 12 17 11 11 19 20 13 15 14 13 9 13 3 8 4 1 2 3 0 7 12 4 4 6 6 7 6 10 7 12 11 10 10 7 6
9 1 3 41 44 14 17 16 8 4 8 12 8 8 11 13 17 15 13 7 19 14 10 6 3 2 4 12 16 6 7 4 4 4 6 4 7 4 13 17 17 13 11 9 8
4 2 6 45 10 7 15 14 5 7 3 5 4 5 12 14 15 13 19 10 12 15 19 9 4 6 11 1 4 9 14 17 8 9 4 2 9 0 5 16 16 14 11 9 7
3 1 8 18 8 13 6 15 5 7 7 5 6 2 3 11 9 14 10 3 10 16 16 11 5 4 3 5 3 8 7 11 10 3 10 6 9 4 6 12 12 16 12 9 8
3 2 2 3 1 8 8 13 12 7 5 3 4 2 5 6 3 14 11 2 4 8 7 16 4 18 18 12 9 10 12 13 13 8 17 14 22 6 10 13 13 13 12 11 9
1 1 0 3 2 2 16 11 17 12 9 10 5 10 9 6 12 8 11 5 3 1 5 11 10 11 15 5 7 10 15 20 20 26 17 28 19 16 22 19 18 15 13 12 11
2 2 1 2 5 6 7 7 21 17 14 11 17 15 11 9 11 7 10 8 7 5 9 4 3 8 5 10 9 4 16 23 27 28 24 23 19 7 19 15 15 16 15 14 13
1 2 1 4 6 3 3 5 6 6 2 7 16 12 14 11 5 2 2 10 10 12 12 10 7 5 11 6 5 6 26 18 20 25 23 22 26 8 10 15 17 17 17 16 15
Wind_Direction
201 198 201 199 196 195 195 197 196 197 193 198 190 195 193 193 212 226 228 213 196 221 177 180 165 150 135 109 76 254 174 166 164 170 142 154 179 143 136 143 193 178 18 51 149
202 194 197 195 194 190 192 199 197 201 196 196 195 189 193 186 206 221 214 213 212 191 178 170 173 163 134 147 138 220 194 176 173 166 155 171 193 155 175 165 196 193 141 126 159
200 197 194 194 188 191 189 193 193 202 201 199 193 187 191 177 217 232 217 207 195 182 193 182 159 173 126 213 156 145 208 160 180 155 142 162 193 164 178 196 199 208 182 158 172
195 196 193 194 189 189 191 187 190 197 200 203 194 188 188 182 197 194 211 178 175 176 163 153 149 152 147 179 143 166 93 118 121 137 137 157 133 184 213 50 61 201 173 166 184
193 196 194 195 189 188 190 188 187 187 196 201 194 184 163 212 233 182 157 165 162 172 193 171 159 148 169 152 135 152 140 99 97 116 92 128 144 244 245 215 143 69 176 190 195
192 192 195 194 190 186 188 189 183 183 189 195 186 182 224 217 166 165 160 164 164 168 188 188 186 163 104 150 218 124 125 125 128 125 83 168 132 239 176 6 226 207 209 206 209
191 192 193 192 188 184 184 189 181 179 182 189 182 174 213 222 182 166 168 179 171 169 170 204 145 137 131 132 146 126 104 130 138 147 100 95 247 224 221 286 279 221 219 218 220
189 190 193 189 186 183 182 182 175 173 174 175 180 177 242 212 175 168 162 152 162 150 162 154 153 103 72 127 75 111 129 185 111 182 110 203 245 210 335 233 248 242 226 224 224
192 189 191 186 185 182 179 172 166 163 160 159 159 214 220 174 176 182 168 159 144 126 119 129 67 82 126 147 133 165 182 202 173 246 148 218 249 139 161 133 271 260 240 233 236
190 187 188 182 182 180 171 158 145 138 140 130 105 203 170 202 157 163 171 159 144 143 119 116 106 166 135 192 204 167 173 189 210 174 204 206 253 236 211 266 260 265 251 240 233
187 185 183 178 182 176 157 132 138 139 195 192 178 286 118 124 131 167 156 129 123 159 161 129 197 200 187 192 102 142 145 176 130 85 217 234 264 266 270 270 248 246 248 250 256
185 182 180 178 179 177 165 185 170 147 172 216 334 265 172 187 122 174 162 168 165 177 138 162 213 183 158 159 150 153 144 166 80 45 240 293 276 271 252 252 256 256 247 263 275
185 181 178 178 177 173 180 193 178 155 131 186 202 188 184 178 174 181 177 152 165 161 192 196 159 152 152 168 155 176 196 177 194 177 132 307 268 276 241 253 265 258 255 246 268
183 181 175 174 168 173 189 185 169 174 125 174 200 226 162 166 189 99 180 157 129 185 170 208 115 157 156 183 185 205 203 167 156 152 260 1 287 277 254 277 238 179 127 122 92
184 178 174 177 147 172 182 198 154 248 199 161 162 126 151 182 130 194 176 103 156 155 181 172 163 160 178 185 180 206 145 119 86 118 320 187 254 252 348 263 186 163 115 92 64
181 176 174 170 153 172 180 178 114 93 229 173 147 168 156 185 97 122 158 55 98 115 57 115 354 198 149 76 156 147 108 74 78 107 251 211 227 228 214 233 149 135 128 107 107
188 185 179 168 155 169 173 162 95 202 142 185 177 172 173 164 141 170 178 180 167 164 187 130 173 145 148 105 112 173 157 124 200 203 248 68 209 258 222 198 182 154 139 124 113
198 190 175 167 164 156 173 148 188 201 196 101 154 155 179 154 187 166 166 188 213 183 155 181 201 177 173 190 172 180 189 172 193 198 200 92 229 248 115 293 189 115 116 125 112
193 179 163 170 164 164 170 186 202 174 180 150 147 159 184 189 170 171 196 200 194 192 193 191 209 139 158 150 156 178 213 128 102 49 229 208 250 264 215 168 150 133 140 127 116
42 166 161 163 160 163 167 206 210 181 151 165 165 187 186 182 172 193 179 193 197 188 211 174 153 343 142 136 45 201 143 157 219 192 230 219 254 235 191 183 163 158 151 138 119
40 118 339 164 161 174 190 200 182 204 194 184 173 156 186 178 192 193 198 205 195 181 189 143 130 123 165 211 181 155 185 194 192 202 218 238 244 225 208 180 170 163 158 152 135
82 115 302 150 164 192 204 189 157 169 173 193 170 129 179 169 185 191 208 222 188 162 192 178 126 164 198 28 291 218 211 187 198 198 252 304 252 199 207 167 165 163 165 158 150
97 15 343 163 175 187 164 198 184 171 181 186 177 207 163 170 182 205 193 192 167 176 179 168 190 142 191 228 201 223 200 228 233 39 211 203 249 24 148 155 161 158 166 173 162
119 147 359 33 12 183 162 187 196 205 179 158 158 113 140 175 193 189 188 152 196 198 149 160 149 212 218 224 159 205 205 206 202 211 227 225 243 165 181 176 176 177 170 170 168
32 145 324 146 179 165 181 183 183 190 213 182 229 214 180 167 192 182 177 127 78 176 163 171 205 214 238 273 205 201 196 198 202 223 217 240 234 206 190 191 191 175 172 174 172
140 160 199 112 128 129 167 189 194 194 183 197 222 197 195 197 197 173 149 177 173 172 187 221 204 170 233 208 217 223 213 206 215 225 229 241 250 229 196 182 179 186 179 181 175
161 110 339 147 143 160 173 148 175 184 231 233 211 197 210 201 120 85 126 170 160 163 182 167 148 139 241 176 137 273 225 210 218 223 222 228 237 156 179 187 186 185 187 182 176